Location: Azul
(36.7830°S, 59.8500°W)
Time: 15:24:56
(UTC-03:00)

ISS - Visible Passes

Search period start: 21 March 2019 00:00
Search period end: 31 March 2019 00:00
Orbit: 406 x 411 km, 51.6° (Epoch: 21 March)

Date Brightness Start Highest point End Pass type
(mag) Time Alt. Az. Time Alt. Az. Time Alt. Az.
25 Mar -1.3 06:05:46 10° N 06:08:21 21° NE 06:10:58 10° E visible
26 Mar -0.7 05:16:35 10° NE 05:17:26 11° NE 05:18:18 10° ENE visible
27 Mar -3.4 06:00:12 18° NNW 06:02:27 61° NE 06:05:47 10° SE visible
28 Mar -2.0 05:11:43 29° ENE 05:11:43 29° ENE 05:14:23 10° ESE visible
29 Mar -3.4 05:55:51 36° W 05:56:42 46° SW 05:59:58 10° SE visible
30 Mar -1.8 05:07:06 29° SE 05:07:06 29° SE 05:08:52 10° SE visible
30 Mar -1.6 06:40:29 10° WSW 06:42:29 15° SSW 06:44:29 10° SSE visible
